FW5236 Weather Reports


Display with metric or nautical units.
time (UTC)temp
F
wind
direction
speed
MPH
gust
MPH
rain 1hr
in
rain 24hr
in
rain mn
in
humidity
%
barometer
mb
20260505031604 69 2 0.0 3.0 0.00 0.00 0.00 55 1010.6
20260505030032 70 24 0.0 4.0 0.00 0.00 0.00 53 1010.4
20260505024605 72 32 0.0 3.0 0.00 0.00 0.00 50 1010.3
20260505023030 74 20 0.0 5.0 0.00 0.00 0.00 49 1010.1
20260505021530 75 29 1.0 5.0 0.00 0.00 0.00 47 1010.1
20260505020107 76 52 2.0 5.0 0.00 0.00 0.00 45 1010.0
20260505014532 77 43 1.0 4.0 0.00 0.00 0.00 44 1010.0
20260505013030 78 42 1.0 5.0 0.00 0.00 0.00 42 1010.0
20260505011530 79 46 2.0 7.0 0.00 0.00 0.00 42 1010.0
20260505010032 79 47 2.0 6.0 0.00 0.00 0.00 40 1009.9
20260505003103 81 47 2.0 5.0 0.00 0.00 0.00 39 1010.1
20260505001606 81 53 2.0 6.0 0.00 0.00 0.00 39 1010.1
20260505000034 81 42 2.0 5.0 0.00 0.00 0.00 38 1010.2
20260504234531 82 42 2.0 5.0 0.00 0.00 0.00 38 1010.2
20260504233031 83 50 2.0 6.0 0.00 0.00 0.00 37 1010.2
20260504231530 83 55 1.0 4.0 0.00 0.00 0.00 37 1010.4
20260504230107 83 56 2.0 5.0 0.00 0.00 0.00 36 1010.6
20260504224531 83 49 2.0 5.0 0.00 0.00 0.00 36 1010.7
20260504223106 83 46 2.0 5.0 0.00 0.00 0.00 36 1010.8
20260504221530 83 37 2.0 6.0 0.00 0.00 0.00 35 1010.9
20260504220029 83 46 1.0 6.0 0.00 0.00 0.00 34 1011.0
20260504214531 84 44 1.0 5.0 0.00 0.00 0.00 31 1011.2
20260504213030 84 27 1.0 6.0 0.00 0.00 0.00 30 1011.3
20260504211527 84 26 1.0 4.0 0.00 0.00 0.00 30 1011.3
20260504210032 83 42 1.0 4.0 0.00 0.00 0.00 31 1011.5
20260504203031 82 45 1.0 4.0 0.00 0.00 0.00 35 1011.9
20260504201525 81 40 1.0 5.0 0.00 0.00 0.00 35 1011.9
20260504200032 81 44 1.0 5.0 0.00 0.00 0.00 36 1012.0
20260504194527 80 51 1.0 4.0 0.00 0.00 0.00 37 1012.1
20260504193031 80 51 1.0 4.0 0.00 0.00 0.00 38 1012.0
20260504191527 79 40 2.0 5.0 0.00 0.00 0.00 40 1012.2
20260504190031 78 32 1.0 7.0 0.00 0.00 0.00 39 1012.3
20260504184531 77 43 1.0 5.0 0.00 0.00 0.00 40 1012.4
20260504183031 77 45 2.0 5.0 0.00 0.00 0.00 41 1012.4
20260504181529 77 46 1.0 5.0 0.00 0.00 0.00 42 1012.4
20260504180031 77 28 1.0 5.0 0.00 0.00 0.00 42 1012.4
20260504174531 78 46 0.0 3.0 0.00 0.00 0.00 42 1012.5
20260504173103 77 41 0.0 2.0 0.00 0.00 0.00 42 1012.5
20260504110107 53 227 2.0 3.0 0.00 0.00 0.00 62 1012.1
20260504090104 57 234 3.0 5.0 0.00 0.00 0.00 58 1012.3
20260504081530 58 233 2.0 4.0 0.00 0.00 0.00 57 1012.5
20260504060107 60 228 0.0 3.0 0.00 0.00 0.00 56 1012.3
20260504050107 64 241 2.0 5.0 0.00 0.00 0.00 49 1012.1
20260504044530 64 237 2.0 4.0 0.00 0.00 0.00 46 1012.1
20260504041607 63 236 1.0 3.0 0.00 0.00 0.00 50 1011.8
20260504040037 63 165 0.0 2.0 0.00 0.00 0.00 52 1011.7
20260504033031 70 157 0.0 1.0 0.00 0.00 0.00 41 1011.3